Regional Weather Roundup
Issued by NWS

Home | Current Version | Previous Version | Graphics & Text | Print | Product List | Glossary On
Versions: 1 2 3 4 5 6 7 8 9 10 11 12 13 14 15 16 17 18 19 20 21 22 23 24 25 26 27 28 29 30 31 32 33 34 35 36 37 38 39 40 41 42 43 44 45 46 47 48 49 50
000
ASUS45 KBOU 291607
RWRCO

WEATHER ROUNDUP FOR COLORADO
NATIONAL WEATHER SERVICE DENVER/BOULDER CO
1000 AM MDT MON SEP 29 2014

NOTE: "FAIR" INDICATES FEW OR NO CLOUDS BELOW 12000 FEET WITH NO
SIGNIFICANT WEATHER AND/OR OBSTRUCTIONS TO VISIBILITY.

COZ001>005-013-030-031-291700-
...NORTHWEST COLORADO...

CITY           SKY/WX    TMP DP  RH WIND       PRES   REMARKS
CRAIG          PTSUNNY   51  44  77 NE6       30.05F
HAYDEN         PTSUNNY   48  43  81 E7        30.06F
MEEKER         PTSUNNY   49  42  77 E3        30.06F
MOUNT WERNER   NOT AVBL
STEAMBOAT SPGS NOT AVBL
WALDEN         PTSUNNY   50  41  71 SE6       30.13S
$$

COZ006>008-011-291700-
...WEST CENTRAL VALLEYS...

CITY           SKY/WX    TMP DP  RH WIND       PRES   REMARKS
GRAND JUNCTION CLOUDY    54  50  86 SE8       30.01S
MONTROSE       PTSUNNY   53  49  86 CALM      30.06F
EAGLE          PTSUNNY   52  46  82 CALM      30.10F
RIFLE          PTSUNNY   52  47  83 CALM      30.03F
DELTA          RAIN      56  51  84 CALM      30.03F
NUCLA          PTSUNNY   50  46  87 NW5       30.09F
$$

COZ017>023-064>068-291700-
...SOUTHWEST COLORADO...

CITY           SKY/WX    TMP DP  RH WIND       PRES   REMARKS
DURANGO        LGT RAIN  50  47  89 SW14G20   30.13S
CORTEZ         SUNNY     61  46  57 S13       30.05F
PAGOSA SPRINGS RAIN      49  49  99 CALM      30.17S
TELLURIDE      PTSUNNY  N/A N/A N/A S6G18     30.16F
WOLF CREEK PAS NOT AVBL
$$

COZ009-010-012-014-032>034-037-058>063-291700-
...CENTRAL COLORADO...

CITY           SKY/WX    TMP DP  RH WIND       PRES   REMARKS
ASPEN          LGT RAIN  48  41  76 CALM      30.11F
BUENA VISTA    PTSUNNY   54  43  66 CALM      30.14F
COPPER MTN     SUNNY     46  32  57 SE13G26   30.31S
BERTHOUD PASS  PTSUNNY   36  34  93 E20       30.35S
COTTONWOOD PAS CLOUDY    50  45  81 SE7       30.23F
GUNNISON       PTSUNNY   46  39  76 CALM      30.15F
KREMMLING      MOSUNNY   52  41  66 CALM      30.12F
LEADVILLE      PTSUNNY   44  38  79 CALM        N/A
MONARCH PASS   FOG       34  34 100 SW15      30.42  VSB 1/4 WCI  24
SALIDA         PTSUNNY   59  45  58 CALM      30.19F
SUNLIGHT       CLOUDY    43  39  87 CALM      30.25F
WILKERSON PASS NOT AVBL
$$

COZ069>075-291700-
...SAN LUIS VALLEY/SANGRE DE CRISTO MOUNTAINS...

CITY           SKY/WX    TMP DP  RH WIND       PRES   REMARKS
ALAMOSA        PTSUNNY   57  49  74 SE6       30.15S
LA VETA PASS   PTSUNNY   48  39  71 S8G28     30.28S
SAGUACHE       CLOUDY    50  46  87 W8        30.17S
$$

COZ035-036-038>040-291700-
...NORTHERN COLORADO FRONT RANGE...

CITY           SKY/WX    TMP DP  RH WIND       PRES   REMARKS
DENVER INTL AP PTSUNNY   60  50  69 VRB3      30.06S
DMNS CITY PARK   N/A     60  50  69 SE5       30.06S
AURORA         PTSUNNY   57  52  82 VRB3      30.07F
FRONT RANGE AP NOT AVBL
ERIE MUNI ARPT NOT AVBL
BOULDER MUN AP CLOUDY    59  52  77 CALM      30.05F
CENTENNIAL     PTSUNNY   57  51  80 N7        30.07F
BROOMFIELD     PTSUNNY   57  50  77 CALM      30.07F
FORT COLLINS   MOSUNNY   59  48  67 SE8       30.07S
LONGMONT       NOT AVBL
$$

COZ041-046-047-076>085-087-088-291700-
...PIKES PEAK/PALMER DIVIDE AND SOUTHERN FOOTHILLS...

CITY           SKY/WX    TMP DP  RH WIND       PRES   REMARKS
COLO. SPRINGS  MOSUNNY   65  49  56 VRB3      30.07F
A. F. ACADEMY  SUNNY     60  47  62 VRB3      30.08F
ELLICOTT       NOT AVBL
FALCON         SUNNY     64  47  54 SE3       30.11S
FORT CARSON    SUNNY     64  51  61 SE6       30.05S
LIMON          SUNNY     59  51  75 MISG      30.06S
MONUMENT HILL  CLOUDY    50  46  87 N5        30.11S
TRINIDAD       SUNNY     70  48  45 S7        30.05F
$$

COZ042>045-048>051-090-091-291700-
...NORTHEAST COLORADO...

CITY           SKY/WX    TMP DP  RH WIND       PRES   REMARKS
GREELEY ARPT   MOSUNNY   61  46  59 W7        30.05F
AKRON          CLOUDY    57  55  93 S8        30.03R
BURLINGTON     SUNNY     72  55  55 S17G26    30.02S
WRAY           MOSUNNY   69  55  60 S12       30.01S
STERLING       NOT AVBL
HOLYOKE        NOT AVBL
FORT MORGAN    PTSUNNY   62  53  72 NE8       30.03F
$$

COZ086-089-092>099-291700-
...SOUTHEAST COLORADO...

CITY           SKY/WX    TMP DP  RH WIND       PRES   REMARKS
PUEBLO         SUNNY     67  52  58 NE5       29.99F
LA JUNTA       SUNNY     76  53  44 SW14      29.98S
LAMAR          SUNNY     75  55  49 S21       29.97F
SPRINGFIELD      N/A     69  55  60 S28G35    30.04F
$$



USA.gov is the U.S. government's official web portal to all federal, state and local government web resources and services.